| time (UTC) | temp F | wind direction | speed MPH | gust MPH | rain 1hr in | rain 24hr in | rain mn in | humidity % | barometer mb |
| 20260901091630 | 64 | 266 | 0.0 | 0.0 | 0.01 | 0.04 | 0.03 | 1 | 1015.8 |
| 20260901084626 | 64 | 266 | 0.0 | 0.0 | 0.01 | 0.04 | 0.03 | 1 | 1016.1 |
| 20260901083046 | 64 | 266 | 0.0 | 0.0 | 0.01 | 0.04 | 0.03 | 1 | 1016.2 |
| 20260901081510 | 64 | 266 | 0.0 | 0.0 | 0.00 | 0.03 | 0.02 | 1 | 1016.3 |
| 20260901080100 | 64 | 266 | 0.0 | 0.0 | 0.01 | 0.03 | 0.02 | 1 | 1016.4 |
| 20260901074510 | 64 | 266 | 0.0 | 0.0 | 0.01 | 0.03 | 0.02 | 1 | 1016.6 |
| 20260901073109 | 64 | 266 | 0.0 | 0.0 | 0.02 | 0.03 | 0.02 | 1 | 1016.5 |
| 20260901071534 | 64 | 266 | 0.0 | 0.0 | 0.02 | 0.03 | 0.02 | 1 | 1016.5 |
| 20260901070115 | 64 | 266 | 0.0 | 0.0 | 0.01 | 0.02 | 0.01 | 1 | 1016.7 |
| 20260901064540 | 64 | 266 | 0.0 | 0.0 | 0.01 | 0.02 | 0.01 | 1 | 1016.9 |
| 20260901063121 | 64 | 266 | 0.0 | 0.0 | 0.00 | 0.01 | 0.00 | 1 | 1017.2 |
| 20260901061544 | 64 | 266 | 0.0 | 0.0 | 0.00 | 0.01 | 0.00 | 1 | 1017.2 |
| 20260901060132 | 64 | 266 | 0.0 | 0.0 | 0.00 | 0.01 | 0.00 | 1 | 1017.0 |
| 20260901053014 | 64 | 266 | 0.0 | 0.0 | 0.00 | 0.01 | 0.00 | 1 | 1017.4 |
| 20260901051607 | 64 | 266 | 0.0 | 0.0 | 0.00 | 0.01 | 0.00 | 1 | 1017.7 |
| 20260901050024 | 64 | 266 | 0.0 | 0.0 | 0.00 | 0.01 | 0.00 | 1 | 1017.7 |
| 20260901044617 | 64 | 266 | 0.0 | 0.0 | 0.00 | 0.01 | 0.00 | 1 | 1017.7 |
| 20260901043037 | 64 | 266 | 0.0 | 0.0 | 0.00 | 0.01 | 0.00 | 1 | 1017.7 |
| 20260901041629 | 64 | 266 | 0.0 | 0.0 | 0.00 | 0.01 | 0.00 | 1 | 1017.7 |
| 20260901040052 | 64 | 266 | 0.0 | 0.0 | 0.00 | 0.01 | 0.00 | 1 | 1017.8 |
| 20260901034541 | 64 | 266 | 0.0 | 0.0 | 0.00 | 0.01 | 0.01 | 1 | 1017.9 |
| 20260901033132 | 64 | 266 | 0.0 | 0.0 | 0.00 | 0.01 | 0.01 | 1 | 1017.9 |
| 20260901031549 | 64 | 266 | 0.0 | 0.0 | 0.00 | 0.01 | 0.01 | 1 | 1018.1 |
| 20260901030006 | 64 | 266 | 0.0 | 0.0 | 0.00 | 0.01 | 0.01 | 1 | 1018.1 |
| 20260901024553 | 64 | 266 | 0.0 | 0.0 | 0.00 | 0.01 | 0.01 | 1 | 1018.2 |
| 20260901023003 | 64 | 266 | 0.0 | 0.0 | 0.00 | 0.01 | 0.01 | 1 | 1018.2 |
| 20260901021551 | 64 | 266 | 0.0 | 0.0 | 0.00 | 0.01 | 0.01 | 1 | 1018.3 |
| 20260901020017 | 64 | 267 | 0.0 | 0.0 | 0.00 | 0.01 | 0.01 | 1 | 1018.1 |
| 20260901014606 | 65 | 267 | 0.0 | 0.0 | 0.00 | 0.01 | 0.01 | 1 | 1018.1 |
| 20260901011614 | 65 | 268 | 0.0 | 0.0 | 0.00 | 0.01 | 0.01 | 2 | 1018.3 |
| 20260901010040 | 65 | 265 | 0.0 | 0.0 | 0.00 | 0.01 | 0.01 | 1 | 1018.4 |
| 20260901004630 | 65 | 265 | 0.0 | 0.0 | 0.00 | 0.04 | 0.01 | 1 | 1018.3 |
| 20260901003051 | 66 | 265 | 0.0 | 0.0 | 0.00 | 0.04 | 0.01 | 6 | 1018.2 |
| 20260901001513 | 66 | 265 | 0.0 | 0.0 | 0.00 | 0.04 | 0.01 | 16 | 1018.0 |
| 20260901000107 | 66 | 265 | 0.0 | 0.0 | 0.00 | 0.04 | 0.01 | 25 | 1017.9 |
| 20260831234525 | 67 | 265 | 0.0 | 0.0 | 0.00 | 0.04 | 0.01 | 32 | 1017.9 |
| 20260831233120 | 67 | 265 | 0.0 | 0.0 | 0.00 | 0.04 | 0.01 | 37 | 1017.9 |
| 20260831231541 | 67 | 265 | 0.0 | 0.0 | 0.00 | 0.04 | 0.01 | 43 | 1018.1 |
| 20260831230129 | 69 | 265 | 0.0 | 0.0 | 0.00 | 0.04 | 0.01 | 45 | 1018.1 |
| 20260831224614 | 70 | 264 | 0.0 | 0.0 | 0.00 | 0.04 | 0.01 | 57 | 1018.1 |
| 20260831223041 | 70 | 264 | 0.0 | 0.0 | 0.00 | 0.04 | 0.01 | 59 | 1018.2 |
| 20260831221631 | 70 | 264 | 0.0 | 0.0 | 0.00 | 0.04 | 0.01 | 59 | 1018.4 |
| 20260831220053 | 71 | 264 | 0.0 | 0.0 | 0.00 | 0.04 | 0.01 | 61 | 1018.2 |
| 20260831214633 | 71 | 264 | 0.0 | 0.0 | 0.00 | 0.04 | 0.01 | 62 | 1018.2 |
| 20260831213100 | 71 | 264 | 0.0 | 0.0 | 0.00 | 0.04 | 0.01 | 63 | 1018.2 |
| 20260831211513 | 71 | 264 | 0.0 | 0.0 | 0.00 | 0.04 | 0.01 | 64 | 1018.2 |
| 20260831210111 | 71 | 264 | 0.0 | 0.0 | 0.00 | 0.04 | 0.01 | 64 | 1018.1 |
| 20260831204526 | 71 | 264 | 0.0 | 0.0 | 0.00 | 0.04 | 0.01 | 63 | 1018.2 |
| 20260831203116 | 70 | 264 | 0.0 | 0.0 | 0.00 | 0.04 | 0.01 | 64 | 1018.3 |
| 20260831201534 | 70 | 264 | 0.0 | 0.0 | 0.00 | 0.04 | 0.01 | 63 | 1018.2 |
| 20260831194547 | 70 | 264 | 0.0 | 0.0 | 0.00 | 0.04 | 0.01 | 65 | 1018.5 |
| 20260831193021 | 72 | 264 | 0.0 | 0.0 | 0.00 | 0.04 | 0.01 | 66 | 1018.6 |
| 20260831191602 | 73 | 264 | 0.0 | 0.0 | 0.00 | 0.04 | 0.01 | 66 | 1018.9 |
| 20260831190026 | 73 | 264 | 0.0 | 0.0 | 0.00 | 0.04 | 0.01 | 66 | 1018.6 |
| 20260831184614 | 73 | 264 | 0.0 | 0.0 | 0.00 | 0.04 | 0.01 | 64 | 1019.0 |
| 20260831183038 | 73 | 40 | 0.0 | 0.0 | 0.00 | 0.04 | 0.01 | 66 | 1019.1 |
| 20260831181631 | 73 | 40 | 0.0 | 0.0 | 0.00 | 0.04 | 0.01 | 66 | 1019.1 |
| 20260831180042 | 74 | 40 | 0.0 | 0.0 | 0.00 | 0.04 | 0.01 | 64 | 1019.0 |
| 20260831174631 | 74 | 40 | 0.0 | 0.0 | 0.00 | 0.04 | 0.01 | 63 | 1019.1 |
| 20260831173049 | 74 | 40 | 0.0 | 0.0 | 0.00 | 0.04 | 0.01 | 64 | 1019.4 |
| 20260831171511 | 76 | 40 | 0.0 | 0.0 | 0.00 | 0.04 | 0.01 | 63 | 1019.5 |
| 20260831170106 | 75 | 40 | 0.0 | 0.0 | 0.00 | 0.04 | 0.01 | 63 | 1019.7 |
| 20260831163114 | 76 | 42 | 0.0 | 0.0 | 0.00 | 0.04 | 0.01 | 60 | 1019.9 |
| 20260831161554 | 74 | 42 | 0.0 | 0.0 | 0.00 | 0.04 | 0.01 | 61 | 1020.1 |
| 20260831160127 | 72 | 42 | 0.0 | 0.0 | 0.00 | 0.04 | 0.01 | 65 | 1020.1 |
| 20260831154602 | 72 | 69 | 0.0 | 0.0 | 0.00 | 0.04 | 0.01 | 65 | 1020.2 |
| 20260831153004 | 70 | 73 | 0.0 | 0.0 | 0.00 | 0.04 | 0.01 | 65 | 1020.2 |
| 20260831151600 | 69 | 73 | 0.0 | 0.0 | 0.00 | 0.04 | 0.01 | 65 | 1020.2 |
| 20260831150013 | 69 | 73 | 0.0 | 0.0 | 0.00 | 0.04 | 0.01 | 66 | 1020.2 |
| 20260831144604 | 70 | 73 | 0.0 | 0.0 | 0.01 | 0.04 | 0.01 | 65 | 1020.3 |
| 20260831143018 | 70 | 73 | 0.0 | 0.0 | 0.01 | 0.04 | 0.01 | 65 | 1020.2 |
| 20260831141615 | 69 | 73 | 0.0 | 0.0 | 0.01 | 0.04 | 0.01 | 65 | 1020.1 |
| 20260831140035 | 69 | 73 | 0.0 | 0.0 | 0.01 | 0.04 | 0.01 | 63 | 1020.2 |
| 20260831134626 | 68 | 73 | 0.0 | 0.0 | 0.00 | 0.03 | 0.00 | 62 | 1020.2 |
| 20260831131631 | 66 | 73 | 0.0 | 0.0 | 0.00 | 0.03 | 0.00 | 44 | 1020.1 |
| 20260831130100 | 65 | 73 | 0.0 | 0.0 | 0.00 | 0.03 | 0.00 | 18 | 1020.3 |
| 20260831124514 | 64 | 73 | 0.0 | 0.0 | 0.00 | 0.03 | 0.00 | 1 | 1020.4 |
| 20260831123106 | 62 | 73 | 0.0 | 0.0 | 0.00 | 0.03 | 0.00 | 1 | 1020.4 |
| 20260831121530 | 61 | 335 | 0.0 | 0.0 | 0.00 | 0.03 | 0.00 | 1 | 1020.4 |
| 20260831120123 | 61 | 335 | 0.0 | 0.0 | 0.00 | 0.03 | 0.00 | 1 | 1020.4 |
| 20260831114541 | 60 | 335 | 0.0 | 0.0 | 0.00 | 0.03 | 0.00 | 1 | 1020.4 |
| 20260831113126 | 60 | 360 | 0.0 | 0.0 | 0.00 | 0.03 | 0.00 | 1 | 1020.0 |
| 20260831111553 | 59 | 335 | 0.0 | 0.0 | 0.00 | 0.03 | 0.00 | 1 | 1019.8 |
| 20260831110006 | 59 | 335 | 0.0 | 0.0 | 0.00 | 0.03 | 0.00 | 1 | 1019.7 |
| 20260831104552 | 59 | 335 | 0.0 | 0.0 | 0.00 | 0.03 | 0.00 | 1 | 1019.5 |
| 20260831103018 | 59 | 334 | 0.0 | 0.0 | 0.00 | 0.03 | 0.00 | 1 | 1019.3 |
| 20260831100017 | 59 | 334 | 0.0 | 0.0 | 0.00 | 0.03 | 0.00 | 1 | 1019.1 |
| 20260831094606 | 59 | 360 | 0.0 | 0.0 | 0.00 | 0.03 | 0.00 | 1 | 1019.3 |
| 20260831093043 | 59 | 334 | 0.0 | 0.0 | 0.00 | 0.03 | 0.00 | 1 | 1019.1 |